Flag for Niger Weather past 2 weeks in Agadez, Niger

Now
72 °F

Clear.


Feels Like: 74 °F
Forecast: 80 / 110 °F
Wind: 3 mph from North

Location: Tamanrasset / Aguenna

Current Time: May 25, 2015 at 4:58:36 AM

Latest Report: May 25, 2015 at 4:00 AM


Visibility: N/A

Pressure: 30.07 "Hg

Humidity: 19%

Dew point: 27 °F

Location of AgadezLocation

Historic Weather in Agadez — Graph

°F

Agadez temperature yesterday

Maximum temperature yesterday: 97 °F (at 1:00 PM)
Minimum temperature yesterday: 73 °F (at 5:00 AM)
Average temperature yesterday: 86 °F

Past Weeks' High & Low Weather Summary

 TemperatureHumidityPressure
High97 °F (May 10, 3:00 PM)22% (May 22, 5:30 AM)30.30 "Hg (May 22, 5:30 AM)
Low63 °F (May 15, 3:00 AM)7% (May 15, 7:00 PM)29.95 "Hg (May 13, 12:30 PM)
Average83 °F13%30.16 "Hg
* Reported May 10 4:00 AM — May 25 4:00 AM, Agadez, Weather by CustomWeather, © 2015

Note: Actual official high and low records may vary slightly from our data, if they occured in-between our weather recording intervals... More about our weather records

Advertising

Agadez weather history for previous 24 hours

 ConditionsComfort  
Time TempWeatherWind HumidityBarometerVisibility
4:00 AM
Mon, May 25
72 °FClear.3 mph19%30.07 "HgN/A
2:00 AM75 °FClear.8 mph16%30.09 "Hg6 mi
12:30 AM77 °FClear.6 mph17%30.12 "Hg6 mi
12:00 AM79 °FPassing clouds.7 mph16%30.12 "Hg6 mi
11:00 PM
Sun, May 24
82 °FPassing clouds.12 mph14%30.12 "Hg6 mi
10:00 PM84 °FPassing clouds.9 mph14%30.12 "Hg6 mi
9:00 PM84 °FPassing clouds.7 mph14%30.09 "Hg6 mi
8:30 PM86 °FPassing clouds.8 mph13%30.09 "Hg6 mi
8:00 PM90 °FPassing clouds.13 mph12%30.07 "Hg6 mi
6:00 PM93 °FPassing clouds.16 mph10%30.07 "HgN/A
5:30 PM95 °FScattered clouds.18 mph10%30.07 "HgN/A
5:00 PM93 °FScattered clouds.16 mph11%30.07 "Hg6 mi
4:30 PM95 °FScattered clouds.17 mph10%30.04 "HgN/A
4:00 PM95 °FScattered clouds.15 mph10%30.04 "HgN/A
3:30 PM97 °FScattered clouds.17 mph10%30.04 "HgN/A
3:00 PM95 °FScattered clouds.17 mph10%30.07 "HgN/A
2:00 PM95 °FScattered clouds.14 mph10%30.07 "HgN/A
1:00 PM97 °FScattered clouds.13 mph10%30.09 "HgN/A
12:30 PM95 °FSunny.9 mph11%30.09 "Hg10 mi
11:30 AM93 °FPassing clouds.10 mph11%30.12 "HgN/A
11:00 AM93 °FPassing clouds.8 mph11%30.12 "HgN/A
10:30 AM91 °FPassing clouds.8 mph12%30.12 "HgN/A
10:00 AM88 °FPassing clouds.8 mph13%30.12 "HgN/A
9:30 AM88 °FScattered clouds.8 mph13%30.12 "HgN/A
9:00 AM88 °FScattered clouds.3 mph13%30.12 "HgN/A
8:30 AM86 °FScattered clouds.6 mph13%30.12 "Hg6 mi
8:00 AM82 °FScattered clouds.6 mph15%30.09 "Hg6 mi
7:00 AM77 °FScattered clouds.7 mph18%30.09 "Hg6 mi
6:30 AM77 °FPassing clouds.8 mph18%30.09 "Hg6 mi
6:00 AM75 °FPassing clouds.7 mph19%30.09 "Hg6 mi
5:00 AM73 °FClear.5 mph19%30.07 "Hg5 mi
4:00 AM75 °FClear.9 mph19%30.07 "Hg5 mi
Weather by CustomWeather, © 2015

See weather overviewHow to use our weather pages